Le nostre stazioni meteo in Italia

Pubblicità
Il mio iltempo24.it
Tyndrum, Gran Bretagna (99020): Temperatura & dewpoint: 14.08.2017 05:00:00 - 20.08.2017 05:00:00 (BST)Tyndrum, Gran Bretagna (99020): visibility: 14.08.2017 05:00:00 - 20.08.2017 05:00:00 (BST)Tyndrum, Gran Bretagna (99020): precipitazioni: 14.08.2017 05:00:00 - 20.08.2017 05:00:00 (BST)
Data & Tempo tt [°C] td [°C] vv [km] rr [mm]
20.08.2017 05:00:00 - - - -
20.08.2017 04:00:00 11,1 10,3 - 0,0
20.08.2017 03:00:00 11,0 9,8 - 0,0
20.08.2017 02:00:00 11,4 9,6 - 0,0
20.08.2017 01:00:00 12,2 9,4 - 0,0
20.08.2017 00:00:00 12,0 10,1 - 0,0
19.08.2017 23:00:00 12,0 10,7 - 0,0
19.08.2017 22:00:00 12,2 10,7 - 0,2
19.08.2017 21:00:00 12,5 10,7 - 0,0
19.08.2017 20:00:00 13,1 11,4 - 0,0
19.08.2017 19:00:00 13,7 12,0 - 0,6
19.08.2017 18:00:00 14,0 11,2 - 0,0
19.08.2017 17:00:00 14,0 11,6 - 0,0
19.08.2017 16:00:00 13,9 12,1 - 0,6
19.08.2017 15:00:00 13,9 12,2 - 0,6
19.08.2017 14:00:00 13,0 11,3 - 0,8
19.08.2017 13:00:00 12,7 11,2 - 1,0
19.08.2017 12:00:00 12,4 10,5 - 0,4
19.08.2017 11:00:00 12,2 10,6 - 1,0
19.08.2017 10:00:00 11,8 10,7 - 1,4
19.08.2017 09:00:00 11,1 9,9 - 0,4
19.08.2017 08:00:00 10,7 8,8 - 0,2
19.08.2017 07:00:00 10,1 8,5 - 0,0
19.08.2017 06:00:00 8,5 7,1 - 0,0
19.08.2017 05:00:00 9,5 8,0 - 0,0
19.08.2017 04:00:00 9,4 8,1 - 0,0
19.08.2017 03:00:00 10,4 8,5 - 0,0
19.08.2017 02:00:00 10,7 8,9 - 0,0
19.08.2017 01:00:00 10,8 9,8 - 0,2
19.08.2017 00:00:00 11,1 9,7 - 0,0
18.08.2017 23:00:00 11,6 10,5 - 0,8
18.08.2017 22:00:00 11,7 11,3 - 0,8
18.08.2017 21:00:00 11,9 11,3 - 0,2
18.08.2017 20:00:00 11,9 10,6 - 0,6
18.08.2017 19:00:00 12,7 10,0 - 0,0
18.08.2017 18:00:00 13,2 9,7 - 0,0
18.08.2017 17:00:00 14,5 10,2 - 0,4
18.08.2017 16:00:00 11,7 10,6 - 3,2
18.08.2017 15:00:00 11,2 9,5 - 4,6
18.08.2017 14:00:00 11,5 9,9 - 1,4
18.08.2017 13:00:00 12,3 9,9 - 0,4
18.08.2017 12:00:00 12,7 10,0 - 0,0
18.08.2017 11:00:00 11,8 9,9 - 0,2
18.08.2017 10:00:00 11,1 9,9 - 0,2
18.08.2017 09:00:00 11,2 10,0 - 0,0
18.08.2017 08:00:00 10,8 10,0 - 0,0
18.08.2017 07:00:00 10,4 9,5 - 0,2
18.08.2017 06:00:00 10,7 9,6 - 0,2
18.08.2017 05:00:00 11,9 10,4 - 3,6
18.08.2017 04:00:00 12,5 12,1 - 0,2
18.08.2017 03:00:00 12,5 12,2 - 0,6
18.08.2017 02:00:00 12,7 12,4 - 0,6
18.08.2017 01:00:00 12,7 12,4 - 0,4
18.08.2017 00:00:00 12,6 12,4 - 0,0
17.08.2017 23:00:00 12,7 12,4 - 0,0
17.08.2017 22:00:00 12,5 12,0 - 0,0
17.08.2017 21:00:00 12,8 11,9 - 0,0
17.08.2017 20:00:00 13,8 11,5 - 0,2
17.08.2017 19:00:00 14,1 11,8 - 0,6
17.08.2017 18:00:00 14,6 12,7 - 0,6
17.08.2017 17:00:00 16,4 13,9 - 0,4
17.08.2017 16:00:00 14,3 12,8 - 2,6
17.08.2017 15:00:00 15,5 13,2 - 0,2
17.08.2017 14:00:00 14,8 12,3 - 0,0
17.08.2017 13:00:00 15,0 11,8 - 0,0
17.08.2017 12:00:00 14,4 12,1 - 0,2
17.08.2017 11:00:00 13,9 12,3 - 0,0
17.08.2017 10:00:00 13,8 11,2 10 0,0
17.08.2017 09:00:00 14,1 11,2 - 0,0
17.08.2017 08:00:00 13,2 10,3 - 0,0
17.08.2017 07:00:00 12,8 10,2 - 0,0
17.08.2017 06:00:00 12,8 10,4 - 0,0
17.08.2017 05:00:00 11,9 10,3 - 0,0
17.08.2017 04:00:00 13,1 11,3 - 0,2
17.08.2017 03:00:00 10,8 9,9 - 0,0
17.08.2017 02:00:00 12,6 11,5 - 0,0
17.08.2017 01:00:00 12,8 12,0 - 0,4
17.08.2017 00:00:00 13,6 12,0 - 0,2
16.08.2017 23:00:00 15,0 14,0 - 0,8
16.08.2017 22:00:00 15,2 14,0 - 2,2
16.08.2017 21:00:00 15,0 14,0 - 0,4
16.08.2017 20:00:00 14,8 13,8 - 0,6
16.08.2017 19:00:00 14,6 13,6 - 3,8
16.08.2017 18:00:00 14,5 13,2 - 1,2
16.08.2017 17:00:00 14,7 13,2 - 0,0
16.08.2017 16:00:00 14,4 13,1 - 1,6
16.08.2017 15:00:00 14,0 12,2 - 0,8
16.08.2017 14:00:00 13,9 12,2 - 0,4
16.08.2017 13:00:00 13,2 11,3 - 0,6
16.08.2017 12:00:00 13,8 10,8 - 0,2
16.08.2017 11:00:00 14,1 10,1 - 0,0
16.08.2017 10:00:00 13,7 10,7 19 0,0
16.08.2017 09:00:00 12,3 11,6 - 0,0
16.08.2017 08:00:00 10,3 10,2 - 0,0
16.08.2017 07:00:00 9,0 8,7 - 0,0
16.08.2017 06:00:00 9,0 8,6 - 0,0
16.08.2017 05:00:00 9,3 8,4 - 0,0
16.08.2017 04:00:00 10,2 9,0 - 0,0
16.08.2017 03:00:00 10,6 9,4 - 0,0
16.08.2017 02:00:00 11,7 9,5 - 0,0
16.08.2017 01:00:00 10,9 9,3 - 0,0
16.08.2017 00:00:00 10,5 9,4 - 0,0
15.08.2017 23:00:00 11,0 9,9 - 0,2
15.08.2017 22:00:00 11,3 10,0 - 0,2
15.08.2017 21:00:00 12,5 9,2 - 0,0
15.08.2017 20:00:00 13,2 8,9 - 0,0
15.08.2017 19:00:00 13,7 9,3 - 0,0
15.08.2017 18:00:00 14,2 9,3 - 0,0
15.08.2017 17:00:00 16,6 10,2 - 0,2
15.08.2017 16:00:00 15,9 10,6 - 0,2
15.08.2017 15:00:00 12,9 10,8 - 0,4
15.08.2017 14:00:00 13,4 11,2 - 3,0
15.08.2017 13:00:00 12,9 10,2 - 0,2
15.08.2017 12:00:00 14,4 11,1 - 0,2
15.08.2017 11:00:00 13,6 11,0 - 0,0
15.08.2017 10:00:00 13,4 11,5 10 0,0
15.08.2017 09:00:00 12,5 11,8 - 0,6
15.08.2017 08:00:00 11,2 11,1 - 0,0
15.08.2017 07:00:00 10,2 10,0 - 0,0
15.08.2017 06:00:00 10,5 10,2 - 0,0
15.08.2017 05:00:00 10,7 10,3 - 0,0
15.08.2017 04:00:00 11,1 10,7 - 0,0
15.08.2017 03:00:00 11,7 11,1 - 0,0
15.08.2017 02:00:00 12,1 11,7 - 0,0
15.08.2017 01:00:00 12,4 12,0 - 0,0
15.08.2017 00:00:00 12,6 12,1 - 0,0
14.08.2017 23:00:00 12,7 12,1 - 0,0
14.08.2017 22:00:00 12,9 12,3 10 0,0
14.08.2017 21:00:00 13,6 12,6 - 2,2
14.08.2017 20:00:00 14,8 13,6 - 2,6
14.08.2017 19:00:00 15,1 13,4 - 0,0
14.08.2017 18:00:00 15,8 13,6 - 0,2
14.08.2017 17:00:00 15,1 14,1 - 0,4
14.08.2017 16:00:00 15,4 14,0 - 2,0
14.08.2017 15:00:00 15,4 14,2 - 2,2
14.08.2017 14:00:00 14,8 13,8 - 2,4
14.08.2017 13:00:00 13,9 13,1 - 3,6
14.08.2017 12:00:00 12,9 12,2 - 1,2
14.08.2017 11:00:00 11,6 11,1 - 0,8
14.08.2017 10:00:00 11,3 10,2 30 1,2
14.08.2017 09:00:00 10,8 9,4 - 1,6
14.08.2017 08:00:00 10,7 9,0 - 0,8
14.08.2017 07:00:00 10,1 9,0 - 0,0
14.08.2017 06:00:00 9,9 8,7 - 0,0
14.08.2017 05:00:00 9,1 8,7 - 0,4

tt = Temperatura
td = dewpoint
vv = visibility
rr = precipitazioni

Stazioni seguenti

WeatherPro
AMSI
MeteoEarth